Location: La Brionne
(46.1728°N, 1.7849°E)
Time: 07:44:23
(UTC+00:00)

FALCON 9 DEB - Pass Details

Date: 16 June 2021
Orbit: 362 x 379 km, 53.0° (Epoch: 31 July)

Event Time Altitude Azimuth Distance (km) Brightness Sun altitude
Exits shadow 22:56:38 64° 73° (ENE) 433 3.0 -19.3°
Drops below altitude 10° 22:59:24 10° 60° (ENE) 1,420 5.9 -19.4°
Sets 23:01:28 0° 60° (ENE) 2,276 7.0 -19.4°
